Location: Aalen
(48.8330°N, 10.1000°E)
Time: 03:48:26
(UTC+02:00)

X-37B - Visible Passes

Search period start: 22 June 2021 00:00
Search period end: 02 July 2021 00:00
Orbit: 386 x 389 km, 45.0° (Epoch: 10 June)

Date Brightness Start Highest point End Pass type
(mag) Time Alt. Az. Time Alt. Az. Time Alt. Az.
22 Jun 3.0 02:10:40 13° ESE 02:10:40 13° ESE 02:11:08 10° ESE visible
22 Jun 1.8 03:43:04 17° SW 03:44:20 21° SSW 03:46:51 10° SSE visible
22 Jun 2.9 23:30:58 10° SW 23:31:22 12° SSW 23:31:22 12° SSW visible
23 Jun 2.2 22:33:15 10° SSW 22:35:26 17° SSE 22:37:37 10° ESE visible
24 Jun 2.1 00:08:36 10° WSW 00:10:08 23° SW 00:10:08 23° SW visible
24 Jun 1.3 23:10:28 10° SW 23:13:20 31° SSE 23:15:11 17° ESE visible
25 Jun 2.7 00:46:38 10° WSW 00:47:29 16° WSW 00:47:29 16° WSW visible
25 Jun 1.8 22:12:29 10° SW 22:15:07 24° SSE 22:17:46 10° ESE visible
25 Jun 1.0 23:48:21 10° WSW 23:51:22 41° S 23:51:53 37° SSE visible
26 Jun 1.1 22:50:08 10° WSW 22:53:07 38° S 22:56:01 10° ESE visible
27 Jun 1.9 00:26:29 10° WSW 00:28:18 26° SW 00:28:18 26° SW visible
27 Jun 1.0 23:28:09 10° WSW 23:31:11 40° S 23:32:18 28° SE visible
28 Jun 1.1 22:29:53 10° WSW 22:32:55 41° S 22:35:56 10° ESE visible
29 Jun 1.9 00:06:24 10° WSW 00:08:30 26° SW 00:08:30 26° SW visible
29 Jun 1.3 23:08:01 10° WSW 23:10:58 35° S 23:12:24 23° SE visible
30 Jun 1.2 22:09:41 10° WSW 22:12:42 40° S 22:15:44 10° ESE visible
30 Jun 2.2 23:46:26 10° WSW 23:48:33 21° SSW 23:48:33 21° SSW visible
01 Jul 1.7 22:47:56 10° WSW 22:50:44 28° SSW 22:52:27 17° SSE visible
